Year,Month,Day,Hour,Minute,Value (Times are PST for temperature in C)
2015,07,02,00,00,21.00
2015,07,02,00,01,20.90
2015,07,02,00,02,20.90
2015,07,02,00,03,20.90
2015,07,02,00,04,20.90
2015,07,02,00,05,20.90
2015,07,02,00,06,20.90
2015,07,02,00,07,20.80
2015,07,02,00,08,20.80
2015,07,02,00,09,20.80
2015,07,02,00,10,20.80
2015,07,02,00,11,20.70
2015,07,02,00,12,20.70
2015,07,02,00,13,20.70
2015,07,02,00,14,20.70
2015,07,02,00,15,20.60
2015,07,02,00,16,20.60
2015,07,02,00,17,20.60
2015,07,02,00,18,20.50
2015,07,02,00,19,20.40
2015,07,02,00,20,20.40
2015,07,02,00,21,20.40
2015,07,02,00,22,20.40
2015,07,02,00,23,20.40
2015,07,02,00,24,20.30
2015,07,02,00,25,20.30
2015,07,02,00,26,20.30
2015,07,02,00,27,20.30
2015,07,02,00,28,20.30
2015,07,02,00,29,20.20
2015,07,02,00,30,20.20
2015,07,02,00,31,20.20
2015,07,02,00,32,20.20
2015,07,02,00,33,20.20
2015,07,02,00,34,20.10
2015,07,02,00,35,20.10
2015,07,02,00,36,20.10
2015,07,02,00,37,20.10
2015,07,02,00,38,20.00
2015,07,02,00,39,20.00
2015,07,02,00,40,20.00
2015,07,02,00,41,20.00
2015,07,02,00,42,20.10
2015,07,02,00,43,20.10
2015,07,02,00,44,20.10
2015,07,02,00,45,20.10
2015,07,02,00,46,20.10
2015,07,02,00,47,20.10
2015,07,02,00,48,20.10
2015,07,02,00,49,20.10
2015,07,02,00,50,20.00
2015,07,02,00,51,20.00
2015,07,02,00,52,20.00
2015,07,02,00,53,19.90
2015,07,02,00,54,19.90
2015,07,02,00,55,19.90
2015,07,02,00,56,19.80
2015,07,02,00,57,19.80
2015,07,02,00,58,19.80
2015,07,02,00,59,19.80
2015,07,02,01,00,19.80
2015,07,02,01,01,19.80
2015,07,02,01,02,19.80
2015,07,02,01,03,19.80
2015,07,02,01,04,19.80
2015,07,02,01,05,19.80
2015,07,02,01,06,19.80
2015,07,02,01,07,19.70
2015,07,02,01,08,19.70
2015,07,02,01,09,19.70
2015,07,02,01,10,19.70
2015,07,02,01,11,19.70
2015,07,02,01,12,19.70
2015,07,02,01,13,19.70
2015,07,02,01,14,19.70
2015,07,02,01,15,19.60
2015,07,02,01,16,19.60
2015,07,02,01,17,19.60
2015,07,02,01,18,19.60
2015,07,02,01,19,19.50
2015,07,02,01,20,19.50
2015,07,02,01,21,19.50
2015,07,02,01,22,19.50
2015,07,02,01,23,19.50
2015,07,02,01,24,19.40
2015,07,02,01,25,19.40
2015,07,02,01,26,19.40
2015,07,02,01,27,19.40
2015,07,02,01,28,19.40
2015,07,02,01,29,19.40
2015,07,02,01,30,19.50
2015,07,02,01,31,19.50
2015,07,02,01,32,19.60
2015,07,02,01,33,19.70
2015,07,02,01,34,19.70
2015,07,02,01,35,19.70
2015,07,02,01,36,19.80
2015,07,02,01,37,19.80
2015,07,02,01,38,19.80
2015,07,02,01,39,19.70
2015,07,02,01,40,19.70
2015,07,02,01,41,19.70
2015,07,02,01,42,19.70
2015,07,02,01,43,19.70
2015,07,02,01,44,19.70
2015,07,02,01,45,19.70
2015,07,02,01,46,19.60
2015,07,02,01,47,19.60
2015,07,02,01,48,19.60
2015,07,02,01,49,19.60
2015,07,02,01,50,19.50
2015,07,02,01,51,19.50
2015,07,02,01,52,19.40
2015,07,02,01,53,19.40
2015,07,02,01,54,19.40
2015,07,02,01,55,19.40
2015,07,02,01,56,19.40
2015,07,02,01,57,19.30
2015,07,02,01,58,19.30
2015,07,02,01,59,19.30
2015,07,02,02,00,19.20
2015,07,02,02,01,19.20
2015,07,02,02,02,19.20
2015,07,02,02,03,19.10
2015,07,02,02,04,19.10
2015,07,02,02,05,19.10
2015,07,02,02,06,19.10
2015,07,02,02,07,19.10
2015,07,02,02,08,19.10
2015,07,02,02,09,19.10
2015,07,02,02,10,19.10
2015,07,02,02,11,19.10
2015,07,02,02,12,19.10
2015,07,02,02,13,19.20
2015,07,02,02,14,19.20
2015,07,02,02,15,19.20
2015,07,02,02,16,19.20
2015,07,02,02,17,19.20
2015,07,02,02,18,19.20
2015,07,02,02,19,19.20
2015,07,02,02,20,19.20
2015,07,02,02,21,19.20
2015,07,02,02,22,19.20
2015,07,02,02,23,19.20
2015,07,02,02,24,19.20
2015,07,02,02,25,19.20
2015,07,02,02,26,19.20
2015,07,02,02,27,19.20
2015,07,02,02,28,19.20
2015,07,02,02,29,19.20
2015,07,02,02,30,19.10
2015,07,02,02,31,19.10
2015,07,02,02,32,19.10
2015,07,02,02,33,19.10
2015,07,02,02,34,19.10
2015,07,02,02,35,19.10
2015,07,02,02,36,19.10
2015,07,02,02,37,19.10
2015,07,02,02,38,19.10
2015,07,02,02,39,19.10
2015,07,02,02,40,19.10
2015,07,02,02,41,19.10
2015,07,02,02,42,19.10
2015,07,02,02,43,19.10
2015,07,02,02,44,19.10
2015,07,02,02,45,19.10
2015,07,02,02,46,19.10
2015,07,02,02,47,19.10
2015,07,02,02,48,19.10
2015,07,02,02,49,19.10
2015,07,02,02,50,19.10
2015,07,02,02,51,19.00
2015,07,02,02,52,18.90
2015,07,02,02,53,18.90
2015,07,02,02,54,18.80
2015,07,02,02,55,18.70
2015,07,02,02,56,18.60
2015,07,02,02,57,18.50
2015,07,02,02,58,18.40
2015,07,02,02,59,18.40
2015,07,02,03,00,18.30
2015,07,02,03,01,18.20
2015,07,02,03,02,18.20
2015,07,02,03,03,18.20
2015,07,02,03,04,18.10
2015,07,02,03,05,18.10
2015,07,02,03,06,18.10
2015,07,02,03,07,18.10
2015,07,02,03,08,18.10
2015,07,02,03,09,18.10
2015,07,02,03,10,18.10
2015,07,02,03,11,18.10
2015,07,02,03,12,18.10
2015,07,02,03,13,18.10
2015,07,02,03,14,18.10
2015,07,02,03,15,18.10
2015,07,02,03,16,18.10
2015,07,02,03,17,18.10
2015,07,02,03,18,18.10
2015,07,02,03,19,18.10
2015,07,02,03,20,18.10
2015,07,02,03,21,18.10
2015,07,02,03,22,18.10
2015,07,02,03,23,18.10
2015,07,02,03,24,18.10
2015,07,02,03,25,18.10
2015,07,02,03,26,18.10
2015,07,02,03,27,18.10
2015,07,02,03,28,18.20
2015,07,02,03,29,18.20
2015,07,02,03,30,18.10
2015,07,02,03,31,18.10
2015,07,02,03,32,18.10
2015,07,02,03,33,18.10
2015,07,02,03,34,18.10
2015,07,02,03,35,18.10
2015,07,02,03,36,18.10
2015,07,02,03,37,18.10
2015,07,02,03,38,18.10
2015,07,02,03,39,18.10
2015,07,02,03,40,18.10
2015,07,02,03,41,18.10
2015,07,02,03,42,18.10
2015,07,02,03,43,18.00
2015,07,02,03,44,18.00
2015,07,02,03,45,18.00
2015,07,02,03,46,18.00
2015,07,02,03,47,17.90
2015,07,02,03,48,17.90
2015,07,02,03,49,17.90
2015,07,02,03,50,17.90
2015,07,02,03,51,17.80
2015,07,02,03,52,17.80
2015,07,02,03,53,17.80
2015,07,02,03,54,17.80
2015,07,02,03,55,17.80
2015,07,02,03,56,17.80
2015,07,02,03,57,17.80
2015,07,02,03,58,17.80
2015,07,02,03,59,17.70
2015,07,02,04,00,17.70
2015,07,02,04,01,17.70
2015,07,02,04,02,17.70
2015,07,02,04,03,17.60
2015,07,02,04,04,17.60
2015,07,02,04,05,17.60
2015,07,02,04,06,17.50
2015,07,02,04,07,17.50
2015,07,02,04,08,17.40
2015,07,02,04,09,17.40
2015,07,02,04,10,17.40
2015,07,02,04,11,17.40
2015,07,02,04,12,17.40
2015,07,02,04,13,17.40
2015,07,02,04,14,17.40
2015,07,02,04,15,17.40
2015,07,02,04,16,17.40
2015,07,02,04,17,17.40
2015,07,02,04,18,17.40
2015,07,02,04,19,17.40
2015,07,02,04,20,17.40
2015,07,02,04,21,17.40
2015,07,02,04,22,17.40
2015,07,02,04,23,17.40
2015,07,02,04,24,17.40
2015,07,02,04,25,17.40
2015,07,02,04,26,17.40
2015,07,02,04,27,17.30
2015,07,02,04,28,17.30
2015,07,02,04,29,17.30
2015,07,02,04,30,17.30
2015,07,02,04,31,17.30
2015,07,02,04,32,17.30
2015,07,02,04,33,17.30
2015,07,02,04,34,17.30
2015,07,02,04,35,17.30
2015,07,02,04,36,17.30
2015,07,02,04,37,17.30
2015,07,02,04,38,17.40
2015,07,02,04,39,17.40
2015,07,02,04,40,17.40
2015,07,02,04,41,17.40
2015,07,02,04,42,17.40
2015,07,02,04,43,17.50
2015,07,02,04,44,17.50
2015,07,02,04,45,17.60
2015,07,02,04,46,17.60
2015,07,02,04,47,17.60
2015,07,02,04,48,17.60
2015,07,02,04,49,17.60
2015,07,02,04,50,17.60
2015,07,02,04,51,17.60
2015,07,02,04,52,17.60
2015,07,02,04,53,17.60
2015,07,02,04,54,17.50
2015,07,02,04,55,17.50
2015,07,02,04,56,17.40
2015,07,02,04,57,17.40
2015,07,02,04,58,17.40
2015,07,02,04,59,17.30
2015,07,02,05,00,17.30
2015,07,02,05,01,17.30
2015,07,02,05,02,17.20
2015,07,02,05,03,17.20
2015,07,02,05,04,17.20
2015,07,02,05,05,17.10
2015,07,02,05,06,17.10
2015,07,02,05,07,17.10
2015,07,02,05,08,17.10
2015,07,02,05,09,17.10
2015,07,02,05,10,17.00
2015,07,02,05,11,17.00
2015,07,02,05,12,17.00
2015,07,02,05,13,17.00
2015,07,02,05,14,16.90
2015,07,02,05,15,16.90
2015,07,02,05,16,16.90
2015,07,02,05,17,17.00
2015,07,02,05,18,17.00
2015,07,02,05,19,17.00
2015,07,02,05,20,17.10
2015,07,02,05,21,17.10
2015,07,02,05,22,17.10
2015,07,02,05,23,17.10
2015,07,02,05,24,17.10
2015,07,02,05,25,17.10
2015,07,02,05,26,17.00
2015,07,02,05,27,17.00
2015,07,02,05,28,17.00
2015,07,02,05,29,16.90
2015,07,02,05,30,16.90
2015,07,02,05,31,16.90
2015,07,02,05,32,16.90
2015,07,02,05,33,16.90
2015,07,02,05,34,16.90
2015,07,02,05,35,16.90
2015,07,02,05,36,16.90
2015,07,02,05,37,16.90
2015,07,02,05,38,16.90
2015,07,02,05,39,16.90
2015,07,02,05,40,16.90
2015,07,02,05,41,16.90
2015,07,02,05,42,16.90
2015,07,02,05,43,16.90
2015,07,02,05,44,16.90
2015,07,02,05,45,16.90
2015,07,02,05,46,17.00
2015,07,02,05,47,17.00
2015,07,02,05,48,17.00
2015,07,02,05,49,17.10
2015,07,02,05,50,17.10
2015,07,02,05,51,17.10
2015,07,02,05,52,17.10
2015,07,02,05,53,17.20
2015,07,02,05,54,17.20
2015,07,02,05,55,17.20
2015,07,02,05,56,17.30
2015,07,02,05,57,17.30
2015,07,02,05,58,17.40
2015,07,02,05,59,17.50
2015,07,02,06,00,17.50
2015,07,02,06,01,17.60
2015,07,02,06,02,17.70
2015,07,02,06,03,17.70
2015,07,02,06,04,17.70
2015,07,02,06,05,17.80
2015,07,02,06,06,17.80
2015,07,02,06,07,17.80
2015,07,02,06,08,17.80
2015,07,02,06,09,17.80
2015,07,02,06,10,17.80
2015,07,02,06,11,17.80
2015,07,02,06,12,17.80
2015,07,02,06,13,17.80
2015,07,02,06,14,17.80
2015,07,02,06,15,17.80
2015,07,02,06,16,17.80
2015,07,02,06,17,17.80
2015,07,02,06,18,17.80
2015,07,02,06,19,17.80
2015,07,02,06,20,17.80
2015,07,02,06,21,17.80
2015,07,02,06,22,17.80
2015,07,02,06,23,17.80
2015,07,02,06,24,17.80
2015,07,02,06,25,17.80
2015,07,02,06,26,17.90
2015,07,02,06,27,17.90
2015,07,02,06,28,17.90
2015,07,02,06,29,17.90
2015,07,02,06,30,18.00
2015,07,02,06,31,18.00
2015,07,02,06,32,18.00
2015,07,02,06,33,18.10
2015,07,02,06,34,18.10
2015,07,02,06,35,18.20
2015,07,02,06,36,18.20
2015,07,02,06,37,18.20
2015,07,02,06,38,18.30
2015,07,02,06,39,18.30
2015,07,02,06,40,18.40
2015,07,02,06,41,18.40
2015,07,02,06,42,18.50
2015,07,02,06,43,18.50
2015,07,02,06,44,18.60
2015,07,02,06,45,18.70
2015,07,02,06,46,18.80
2015,07,02,06,47,18.90
2015,07,02,06,48,19.00
2015,07,02,06,49,19.20
2015,07,02,06,50,19.30
2015,07,02,06,51,19.50
2015,07,02,06,52,19.60
2015,07,02,06,53,19.70
2015,07,02,06,54,19.70
2015,07,02,06,55,19.80
2015,07,02,06,56,19.80
2015,07,02,06,57,19.80
2015,07,02,06,58,19.90
2015,07,02,06,59,19.90
2015,07,02,07,00,19.90
2015,07,02,07,01,20.00
2015,07,02,07,02,20.10
2015,07,02,07,03,20.20
2015,07,02,07,04,20.20
2015,07,02,07,05,20.30
2015,07,02,07,06,20.40
2015,07,02,07,07,20.40
2015,07,02,07,08,20.50
2015,07,02,07,09,20.50
2015,07,02,07,10,20.60
2015,07,02,07,11,20.60
2015,07,02,07,12,20.70
2015,07,02,07,13,20.70
2015,07,02,07,14,20.80
2015,07,02,07,15,20.90
2015,07,02,07,16,21.00
2015,07,02,07,17,21.10
2015,07,02,07,18,21.20
2015,07,02,07,19,21.30
2015,07,02,07,20,21.40
2015,07,02,07,21,21.50
2015,07,02,07,22,21.60
2015,07,02,07,23,21.70
2015,07,02,07,24,21.80
2015,07,02,07,25,21.90
2015,07,02,07,26,22.00
2015,07,02,07,27,22.10
2015,07,02,07,28,22.20
2015,07,02,07,29,22.30
2015,07,02,07,30,22.30
2015,07,02,07,31,22.40
2015,07,02,07,32,22.40
2015,07,02,07,33,22.50
2015,07,02,07,34,22.50
2015,07,02,07,35,22.50
2015,07,02,07,36,22.60
2015,07,02,07,37,22.60
2015,07,02,07,38,22.60
2015,07,02,07,39,22.60
2015,07,02,07,40,22.60
2015,07,02,07,41,22.60
2015,07,02,07,42,22.70
2015,07,02,07,43,22.70
2015,07,02,07,44,22.70
2015,07,02,07,45,22.70
2015,07,02,07,46,22.80
2015,07,02,07,47,22.80
2015,07,02,07,48,22.90
2015,07,02,07,49,22.90
2015,07,02,07,50,22.90
2015,07,02,07,51,22.90
2015,07,02,07,52,22.80
2015,07,02,07,53,22.70
2015,07,02,07,54,22.70
2015,07,02,07,55,22.60
2015,07,02,07,56,22.40
2015,07,02,07,57,22.30
2015,07,02,07,58,22.20
2015,07,02,07,59,22.20
2015,07,02,08,00,22.20
2015,07,02,08,01,22.20
2015,07,02,08,02,22.20
2015,07,02,08,03,22.20
2015,07,02,08,04,22.20
2015,07,02,08,05,22.20
2015,07,02,08,06,22.30
2015,07,02,08,07,22.30
2015,07,02,08,08,22.40
2015,07,02,08,09,22.40
2015,07,02,08,10,22.40
2015,07,02,08,11,22.50
2015,07,02,08,12,22.50
2015,07,02,08,13,22.50
2015,07,02,08,14,22.40
2015,07,02,08,15,22.40
2015,07,02,08,16,22.40
2015,07,02,08,17,22.40
2015,07,02,08,18,22.40
2015,07,02,08,19,22.30
2015,07,02,08,20,22.30
2015,07,02,08,21,22.30
2015,07,02,08,22,22.30
2015,07,02,08,23,22.40
2015,07,02,08,24,22.40
2015,07,02,08,25,22.50
2015,07,02,08,26,22.60
2015,07,02,08,27,22.60
2015,07,02,08,28,22.70
2015,07,02,08,29,22.70
2015,07,02,08,30,22.70
2015,07,02,08,31,22.80
2015,07,02,08,32,22.80
2015,07,02,08,33,22.80
2015,07,02,08,34,22.90
2015,07,02,08,35,22.90
2015,07,02,08,36,22.90
2015,07,02,08,37,23.00
2015,07,02,08,38,23.00
2015,07,02,08,39,23.10
2015,07,02,08,40,23.20
2015,07,02,08,41,23.20
2015,07,02,08,42,23.20
2015,07,02,08,43,23.20
2015,07,02,08,44,23.10
2015,07,02,08,45,23.00
2015,07,02,08,46,22.90
2015,07,02,08,47,22.80
2015,07,02,08,48,22.80
2015,07,02,08,49,22.70
2015,07,02,08,50,22.70
2015,07,02,08,51,22.60
2015,07,02,08,52,22.60
2015,07,02,08,53,22.60
2015,07,02,08,54,22.60
2015,07,02,08,55,22.50
2015,07,02,08,56,22.50
2015,07,02,08,57,22.50
2015,07,02,08,58,22.50
2015,07,02,08,59,22.50
2015,07,02,09,00,22.50
2015,07,02,09,01,22.50
2015,07,02,09,02,22.50
2015,07,02,09,03,22.60
2015,07,02,09,04,22.60
2015,07,02,09,05,22.50
2015,07,02,09,06,22.50
2015,07,02,09,07,22.40
2015,07,02,09,08,22.40
2015,07,02,09,09,22.30
2015,07,02,09,10,22.30
2015,07,02,09,11,22.30
2015,07,02,09,12,22.40
2015,07,02,09,13,22.40
2015,07,02,09,14,22.40
2015,07,02,09,15,22.30
2015,07,02,09,16,22.30
2015,07,02,09,17,22.30
2015,07,02,09,18,22.30
2015,07,02,09,19,22.30
2015,07,02,09,20,22.30
2015,07,02,09,21,22.20
2015,07,02,09,22,22.20
2015,07,02,09,23,22.30
2015,07,02,09,24,22.20
2015,07,02,09,25,22.20
2015,07,02,09,26,22.10
2015,07,02,09,27,22.00
2015,07,02,09,28,21.90
2015,07,02,09,29,21.80
2015,07,02,09,30,21.70
2015,07,02,09,31,21.70
2015,07,02,09,32,21.70
2015,07,02,09,33,21.70
2015,07,02,09,34,21.70
2015,07,02,09,35,21.80
2015,07,02,09,36,21.90
2015,07,02,09,37,22.00
2015,07,02,09,38,22.00
2015,07,02,09,39,22.20
2015,07,02,09,40,22.30
2015,07,02,09,41,22.40
2015,07,02,09,42,22.40
2015,07,02,09,43,22.40
2015,07,02,09,44,22.40
2015,07,02,09,45,22.50
2015,07,02,09,46,22.60
2015,07,02,09,47,22.60
2015,07,02,09,48,22.70
2015,07,02,09,49,22.70
2015,07,02,09,50,22.80
2015,07,02,09,51,23.00
2015,07,02,09,52,23.00
2015,07,02,09,53,23.00
2015,07,02,09,54,23.00
2015,07,02,09,55,23.10
2015,07,02,09,56,23.10
2015,07,02,09,57,23.10
2015,07,02,09,58,23.10
2015,07,02,09,59,23.10
2015,07,02,10,00,23.20
2015,07,02,10,01,23.30
2015,07,02,10,02,23.40
2015,07,02,10,03,23.50
2015,07,02,10,04,23.50
2015,07,02,10,05,23.50
2015,07,02,10,06,23.60
2015,07,02,10,07,23.60
2015,07,02,10,08,23.60
2015,07,02,10,09,23.70
2015,07,02,10,10,23.80
2015,07,02,10,11,23.80
2015,07,02,10,12,23.80
2015,07,02,10,13,23.80
2015,07,02,10,14,23.80
2015,07,02,10,15,23.80
2015,07,02,10,16,23.90
2015,07,02,10,17,23.90
2015,07,02,10,18,24.00
2015,07,02,10,19,24.10
2015,07,02,10,20,24.10
2015,07,02,10,21,24.10
2015,07,02,10,22,24.00
2015,07,02,10,23,24.00
2015,07,02,10,24,23.90
2015,07,02,10,25,24.00
2015,07,02,10,26,24.00
2015,07,02,10,27,24.10
2015,07,02,10,28,24.20
2015,07,02,10,29,24.30
2015,07,02,10,30,24.30
2015,07,02,10,31,24.30
2015,07,02,10,32,24.30
2015,07,02,10,33,24.20
2015,07,02,10,34,24.20
2015,07,02,10,35,24.20
2015,07,02,10,36,24.30
2015,07,02,10,37,24.40
2015,07,02,10,38,24.40
2015,07,02,10,39,24.50
2015,07,02,10,40,24.50
2015,07,02,10,41,24.60
2015,07,02,10,42,24.60
2015,07,02,10,43,24.50
2015,07,02,10,44,24.50
2015,07,02,10,45,24.50
2015,07,02,10,46,24.60
2015,07,02,10,47,24.70
2015,07,02,10,48,24.80
2015,07,02,10,49,24.90
2015,07,02,10,50,25.00
2015,07,02,10,51,25.10
2015,07,02,10,52,25.10
2015,07,02,10,53,25.10
2015,07,02,10,54,25.00
2015,07,02,10,55,24.90
2015,07,02,10,56,25.00
2015,07,02,10,57,25.00
2015,07,02,10,58,25.00
2015,07,02,10,59,25.10
2015,07,02,11,00,25.10
2015,07,02,11,01,25.20
2015,07,02,11,02,25.20
2015,07,02,11,03,25.10
2015,07,02,11,04,25.00
2015,07,02,11,05,24.90
2015,07,02,11,06,24.70
2015,07,02,11,07,24.60
2015,07,02,11,08,24.60
2015,07,02,11,09,24.60
2015,07,02,11,10,24.70
2015,07,02,11,11,24.60
2015,07,02,11,12,24.60
2015,07,02,11,13,24.60
2015,07,02,11,14,24.50
2015,07,02,11,15,24.50
2015,07,02,11,16,24.40
2015,07,02,11,17,24.40
2015,07,02,11,18,24.40
2015,07,02,11,19,24.40
2015,07,02,11,20,24.40
2015,07,02,11,21,24.40
2015,07,02,11,22,24.50
2015,07,02,11,23,24.60
2015,07,02,11,24,24.60
2015,07,02,11,25,24.60
2015,07,02,11,26,24.50
2015,07,02,11,27,24.50
2015,07,02,11,28,24.50
2015,07,02,11,29,24.50
2015,07,02,11,30,24.50
2015,07,02,11,31,24.60
2015,07,02,11,32,24.60
2015,07,02,11,33,24.60
2015,07,02,11,34,24.70
2015,07,02,11,35,24.70
2015,07,02,11,36,24.80
2015,07,02,11,37,24.80
2015,07,02,11,38,25.00
2015,07,02,11,39,25.10
2015,07,02,11,40,25.20
2015,07,02,11,41,25.30
2015,07,02,11,42,25.30
2015,07,02,11,43,25.30
2015,07,02,11,44,25.30
2015,07,02,11,45,25.30
2015,07,02,11,46,25.30
2015,07,02,11,47,25.30
2015,07,02,11,48,25.20
2015,07,02,11,49,25.20
2015,07,02,11,50,25.20
2015,07,02,11,51,25.30
2015,07,02,11,52,25.40
2015,07,02,11,53,25.40
2015,07,02,11,54,25.50
2015,07,02,11,55,25.60
2015,07,02,11,56,25.60
2015,07,02,11,57,25.60
2015,07,02,11,58,25.70
2015,07,02,11,59,25.80
2015,07,02,12,00,25.80
2015,07,02,12,01,25.80
2015,07,02,12,02,25.80
2015,07,02,12,03,25.80
2015,07,02,12,04,25.80
2015,07,02,12,05,25.70
2015,07,02,12,06,25.80
2015,07,02,12,07,25.80
2015,07,02,12,08,25.90
2015,07,02,12,09,25.90
2015,07,02,12,10,25.90
2015,07,02,12,11,25.90
2015,07,02,12,12,25.80
2015,07,02,12,13,25.80
2015,07,02,12,14,25.80
2015,07,02,12,15,25.80
2015,07,02,12,16,25.80
2015,07,02,12,17,25.90
2015,07,02,12,18,25.90
2015,07,02,12,19,26.00
2015,07,02,12,20,26.10
2015,07,02,12,21,26.20
2015,07,02,12,22,26.30
2015,07,02,12,23,26.30
2015,07,02,12,24,26.40
2015,07,02,12,25,26.50
2015,07,02,12,26,26.60
2015,07,02,12,27,26.60
2015,07,02,12,28,26.60
2015,07,02,12,29,26.60
2015,07,02,12,30,26.60
2015,07,02,12,31,26.50
2015,07,02,12,32,26.50
2015,07,02,12,33,26.40
2015,07,02,12,34,26.40
2015,07,02,12,35,26.40
2015,07,02,12,36,26.30
2015,07,02,12,37,26.30
2015,07,02,12,38,26.30
2015,07,02,12,39,26.20
2015,07,02,12,40,26.20
2015,07,02,12,41,26.10
2015,07,02,12,42,26.00
2015,07,02,12,43,25.90
2015,07,02,12,44,26.00
2015,07,02,12,45,26.00
2015,07,02,12,46,26.20
2015,07,02,12,47,26.30
2015,07,02,12,48,26.30
2015,07,02,12,49,26.30
2015,07,02,12,50,26.40
2015,07,02,12,51,26.40
2015,07,02,12,52,26.50
2015,07,02,12,53,26.50
2015,07,02,12,54,26.60
2015,07,02,12,55,26.60
2015,07,02,12,56,26.60
2015,07,02,12,57,26.60
2015,07,02,12,58,26.60
2015,07,02,12,59,26.60
2015,07,02,13,00,26.50
2015,07,02,13,01,26.40
2015,07,02,13,02,26.40
2015,07,02,13,03,26.40
2015,07,02,13,04,26.50
2015,07,02,13,05,26.40
2015,07,02,13,06,26.50
2015,07,02,13,07,26.50
2015,07,02,13,08,26.50
2015,07,02,13,09,26.60
2015,07,02,13,10,26.70
2015,07,02,13,11,26.80
2015,07,02,13,12,27.00
2015,07,02,13,13,27.10
2015,07,02,13,14,27.10
2015,07,02,13,15,27.10
2015,07,02,13,16,27.10
2015,07,02,13,17,26.90
2015,07,02,13,18,26.80
2015,07,02,13,19,26.70
2015,07,02,13,20,26.60
2015,07,02,13,21,26.60
2015,07,02,13,22,26.70
2015,07,02,13,23,26.80
2015,07,02,13,24,26.80
2015,07,02,13,25,26.80
2015,07,02,13,26,26.80
2015,07,02,13,27,26.80
2015,07,02,13,28,26.70
2015,07,02,13,29,26.70
2015,07,02,13,30,26.80
2015,07,02,13,31,26.90
2015,07,02,13,32,27.10
2015,07,02,13,33,27.20
2015,07,02,13,34,27.30
2015,07,02,13,35,27.30
2015,07,02,13,36,27.30
2015,07,02,13,37,27.20
2015,07,02,13,38,27.20
2015,07,02,13,39,27.20
2015,07,02,13,40,27.10
2015,07,02,13,41,27.10
2015,07,02,13,42,27.10
2015,07,02,13,43,27.10
2015,07,02,13,44,27.10
2015,07,02,13,45,27.10
2015,07,02,13,46,27.20
2015,07,02,13,47,27.30
2015,07,02,13,48,27.30
2015,07,02,13,49,27.30
2015,07,02,13,50,27.20
2015,07,02,13,51,27.10
2015,07,02,13,52,27.20
2015,07,02,13,53,27.20
2015,07,02,13,54,27.20
2015,07,02,13,55,27.30
2015,07,02,13,56,27.30
2015,07,02,13,57,27.30
2015,07,02,13,58,27.40
2015,07,02,13,59,27.40
2015,07,02,14,00,27.50
2015,07,02,14,01,27.50
2015,07,02,14,02,27.60
2015,07,02,14,03,27.60
2015,07,02,14,04,27.70
2015,07,02,14,05,27.80
2015,07,02,14,06,27.90
2015,07,02,14,07,28.00
2015,07,02,14,08,28.00
2015,07,02,14,09,28.00
2015,07,02,14,10,28.00
2015,07,02,14,11,27.90
2015,07,02,14,12,27.90
2015,07,02,14,13,28.00
2015,07,02,14,14,27.90
2015,07,02,14,15,28.00
2015,07,02,14,16,28.00
2015,07,02,14,17,28.00
2015,07,02,14,18,28.10
2015,07,02,14,19,28.10
2015,07,02,14,20,28.10
2015,07,02,14,21,28.20
2015,07,02,14,22,28.20
2015,07,02,14,23,28.20
2015,07,02,14,24,28.20
2015,07,02,14,25,28.30
2015,07,02,14,26,28.30
2015,07,02,14,27,28.30
2015,07,02,14,28,28.30
2015,07,02,14,29,28.30
2015,07,02,14,30,28.30
2015,07,02,14,31,28.30
2015,07,02,14,32,28.30
2015,07,02,14,33,28.30
2015,07,02,14,34,28.40
2015,07,02,14,35,28.40
2015,07,02,14,36,28.50
2015,07,02,14,37,28.50
2015,07,02,14,38,28.60
2015,07,02,14,39,28.70
2015,07,02,14,40,28.80
2015,07,02,14,41,28.90
2015,07,02,14,42,29.00
2015,07,02,14,43,29.00
2015,07,02,14,44,29.10
2015,07,02,14,45,29.10
2015,07,02,14,46,29.10
2015,07,02,14,47,29.00
2015,07,02,14,48,28.90
2015,07,02,14,49,28.90
2015,07,02,14,50,28.80
2015,07,02,14,51,28.90
2015,07,02,14,52,29.00
2015,07,02,14,53,29.10
2015,07,02,14,54,29.10
2015,07,02,14,55,29.20
2015,07,02,14,56,29.10
2015,07,02,14,57,29.10
2015,07,02,14,58,29.20
2015,07,02,14,59,29.20
2015,07,02,15,00,29.20
2015,07,02,15,01,29.20
2015,07,02,15,02,29.20
2015,07,02,15,03,29.20
2015,07,02,15,04,29.20
2015,07,02,15,05,29.20
2015,07,02,15,06,29.10
2015,07,02,15,07,29.10
2015,07,02,15,08,29.20
2015,07,02,15,09,29.20
2015,07,02,15,10,29.20
2015,07,02,15,11,29.30
2015,07,02,15,12,29.40
2015,07,02,15,13,29.50
2015,07,02,15,14,29.50
2015,07,02,15,15,29.40
2015,07,02,15,16,29.40
2015,07,02,15,17,29.30
2015,07,02,15,18,29.10
2015,07,02,15,19,29.00
2015,07,02,15,20,28.90
2015,07,02,15,21,28.90
2015,07,02,15,22,28.90
2015,07,02,15,23,29.00
2015,07,02,15,24,29.10
2015,07,02,15,25,29.10
2015,07,02,15,26,29.20
2015,07,02,15,27,29.30
2015,07,02,15,28,29.30
2015,07,02,15,29,29.30
2015,07,02,15,30,29.30
2015,07,02,15,31,29.40
2015,07,02,15,32,29.60
2015,07,02,15,33,29.60
2015,07,02,15,34,29.70
2015,07,02,15,35,29.70
2015,07,02,15,36,29.80
2015,07,02,15,37,29.80
2015,07,02,15,38,29.80
2015,07,02,15,39,29.70
2015,07,02,15,40,29.70
2015,07,02,15,41,29.80
2015,07,02,15,42,29.70
2015,07,02,15,43,29.70
2015,07,02,15,44,29.70
2015,07,02,15,45,29.70
2015,07,02,15,46,29.70
2015,07,02,15,47,29.70
2015,07,02,15,48,29.70
2015,07,02,15,49,29.70
2015,07,02,15,50,29.80
2015,07,02,15,51,29.90
2015,07,02,15,52,30.00
2015,07,02,15,53,30.00
2015,07,02,15,54,30.00
2015,07,02,15,55,29.90
2015,07,02,15,56,29.90
2015,07,02,15,57,29.80
2015,07,02,15,58,29.70
2015,07,02,15,59,29.60
2015,07,02,16,00,29.60
2015,07,02,16,01,29.60
2015,07,02,16,02,29.60
2015,07,02,16,03,29.60
2015,07,02,16,04,29.60
2015,07,02,16,05,29.60
2015,07,02,16,06,29.60
2015,07,02,16,07,29.60
2015,07,02,16,08,29.60
2015,07,02,16,09,29.50
2015,07,02,16,10,29.40
2015,07,02,16,11,29.40
2015,07,02,16,12,29.50
2015,07,02,16,13,29.50
2015,07,02,16,14,29.50
2015,07,02,16,15,29.60
2015,07,02,16,16,29.70
2015,07,02,16,17,29.70
2015,07,02,16,18,29.70
2015,07,02,16,19,29.70
2015,07,02,16,20,29.60
2015,07,02,16,21,29.50
2015,07,02,16,22,29.50
2015,07,02,16,23,29.40
2015,07,02,16,24,29.40
2015,07,02,16,25,29.30
2015,07,02,16,26,29.30
2015,07,02,16,27,29.30
2015,07,02,16,28,29.30
2015,07,02,16,29,29.20
2015,07,02,16,30,29.20
2015,07,02,16,31,29.10
2015,07,02,16,32,29.10
2015,07,02,16,33,29.10
2015,07,02,16,34,29.00
2015,07,02,16,35,29.00
2015,07,02,16,36,29.10
2015,07,02,16,37,29.10
2015,07,02,16,38,29.10
2015,07,02,16,39,29.10
2015,07,02,16,40,29.10
2015,07,02,16,41,29.10
2015,07,02,16,42,29.10
2015,07,02,16,43,29.10
2015,07,02,16,44,29.10
2015,07,02,16,45,29.00
2015,07,02,16,46,29.00
2015,07,02,16,47,28.90
2015,07,02,16,48,28.90
2015,07,02,16,49,29.00
2015,07,02,16,50,29.00
2015,07,02,16,51,29.10
2015,07,02,16,52,29.10
2015,07,02,16,53,29.10
2015,07,02,16,54,29.10
2015,07,02,16,55,29.10
2015,07,02,16,56,29.20
2015,07,02,16,57,29.20
2015,07,02,16,58,29.20
2015,07,02,16,59,29.30
2015,07,02,17,00,29.40
2015,07,02,17,01,29.40
2015,07,02,17,02,29.40
2015,07,02,17,03,29.40
2015,07,02,17,04,29.40
2015,07,02,17,05,29.50
2015,07,02,17,06,29.50
2015,07,02,17,07,29.60
2015,07,02,17,08,29.60
2015,07,02,17,09,29.60
2015,07,02,17,10,29.60
2015,07,02,17,11,29.70
2015,07,02,17,12,29.70
2015,07,02,17,13,29.70
2015,07,02,17,14,29.70
2015,07,02,17,15,29.60
2015,07,02,17,16,29.50
2015,07,02,17,17,29.40
2015,07,02,17,18,29.40
2015,07,02,17,19,29.40